User: anonymous   Login
Location: Bremen
(53.0793°N, 8.8017°E)
Time: 04:50:52
(UTC+01:00)
Language:

Explorer 7 - Orbit

View from above orbital plane
View from above orbital plane
View from above satellite
View from above satellite

Ground track
Ground track

The orbit data is extracted from the following two-line orbital elements,

1 00022U 59009A   21331.52954510  .00001066  00000-0  10075-3 0  9997
2 00022  50.2819 143.1201 0137824 117.3293 244.1762 14.95899347549399
Epoch (UTC): 27 November 2021 12:42:32
Eccentricity: 0.0137824
inclination: 50.2819°
perigee height: 483 km
apogee height: 675 km
right ascension of ascending node: 143.1201°
argument of perigee: 117.3293°
revolutions per day: 14.95899347
mean anomaly at epoch: 244.1762°
orbit number at epoch: 54939

The dashed part of the orbit path shows where the satellite is in the earth's shadow,  

DLR